Regional Weather Roundup
Issued by NWS

Home | Current Version | Previous Version | Text Only | Print | Product List | Glossary On
Versions: 1 2 3 4 5 6 7 8 9 10 11 12 13 14 15 16 17 18 19 20 21 22 23 24 25 26 27 28 29 30 31 32 33 34 35 36 37 38 39 40 41 42 43 44 45 46 47 48 49 50
000
ASUS43 KMKX 271210
RWRWI

WISCONSIN REGIONAL WEATHER ROUNDUP
NATIONAL WEATHER SERVICE MILWAUKEE/SULLIVAN WI
600 AM CST FRI FEB 27 2015

NOTE: "FAIR" INDICATES FEW OR NO CLOUDS BELOW 12,000 FEET WITH NO
SIGNIFICANT WEATHER AND/OR OBSTRUCTIONS TO VISIBILITY.

WIZ001-002-006>008-014>016-023>028-271300-
NORTHWEST WISCONSIN

CITY           SKY/WX    TMP DP  RH WIND       PRES   REMARKS
SUPERIOR ARPT  PTCLDY   -10 -15  78 SW7       30.49R WCI -25
6HR MIN TEMP: -10; 6HR MAX TEMP:   0;

ASHLAND        CLEAR     -7 -14  71 SW7       30.45R WCI -21
6HR MIN TEMP:  -7; 6HR MAX TEMP:  -1;

HAYWARD        PTCLDY   -18 -25  70 CALM      30.42S
6HR MIN TEMP: -19; 6HR MAX TEMP: -13;

SIREN          CLEAR     -9 -15  74 CALM      30.48R
6HR MIN TEMP: -10; 6HR MAX TEMP:  -7;

CUMBERLAND     CLEAR     -9 -17  70 CALM      30.44R
RICE LAKE      CLEAR    -13 -19  77 CALM      30.48R
6HR MIN TEMP: -13; 6HR MAX TEMP:  -4;

CHETEK         CLEAR    -13 -17  82 CALM      30.48R
6HR MIN TEMP: -13; 6HR MAX TEMP:  -4;

LADYSMITH      CLEAR    -18 -24  73 CALM      30.45R
6HR MIN TEMP: -18; 6HR MAX TEMP:  -6;

EAU CLAIRE     FAIR      -8 -14  74 SW5       30.50R WCI -19
6HR MIN TEMP:  -9; 6HR MAX TEMP:  -2;

MENOMONIE      CLEAR     -5 -12  73 SW3       30.51R
6HR MIN TEMP:  -5; 6HR MAX TEMP:   0;

NEW RICHMOND   CLEAR    -10 -15  79 CALM      30.50R
6HR MIN TEMP: -11; 6HR MAX TEMP:  -4;

OSCEOLA        CLEAR    -11 -16  77 CALM      30.54R
6HR MIN TEMP: -12; 6HR MAX TEMP:  -1;

$$

WIZ003>005-009-010-017-018-271300-
NORTH CENTRAL WISCONSIN

CITY           SKY/WX    TMP DP  RH WIND       PRES   REMARKS
MANITOWISH WTR PTCLDY   -24 -31  72 CALM      30.34R
6HR MIN TEMP: -25; 6HR MAX TEMP: -14;

ARBOR VITAE    PTCLDY   -16 -23  71 CALM      30.34R
6HR MIN TEMP: -17; 6HR MAX TEMP:  -9;

WOODRUFF       PTCLDY   -16 -23  71 CALM      30.34R
6HR MIN TEMP: -17; 6HR MAX TEMP:  -9;

RHINELANDER    PTCLDY   -18 -23  77 W7        30.35R WCI -35
6HR MIN TEMP: -20; 6HR MAX TEMP:  -8;

EAGLE RIVER    PTCLDY   -21 -29  68 CALM      30.33R
6HR MIN TEMP: -22; 6HR MAX TEMP: -15;

LAND O LAKES   CLEAR    -29 -37  67 CALM      30.33R
6HR MIN TEMP: -30; 6HR MAX TEMP: -22;

PHILLIPS       CLEAR    -20 -25  78 CALM      30.38R
6HR MIN TEMP: -21; 6HR MAX TEMP: -15;

TOMAHAWK       PTCLDY   -19 -24  75 CALM      30.38R
6HR MIN TEMP: -21; 6HR MAX TEMP: -17;

MEDFORD        PTCLDY   -12 -16  83 CALM      30.39R
6HR MIN TEMP: -13; 6HR MAX TEMP:  -5;

MERRILL        PTCLDY   -21 -27  74 CALM      30.40R
6HR MIN TEMP: -21; 6HR MAX TEMP: -11;

$$

WIZ029-030-035-036-043>047-271300-
CENTRAL WISCONSIN

CITY           SKY/WX    TMP DP  RH WIND       PRES   REMARKS
WAUSAU         PTCLDY    -6 -14  68 NW8       30.41R WCI -21
6HR MIN TEMP:  -7; 6HR MAX TEMP:  -1;

MOSINEE        CLEAR     -9 -15  77 W5        30.42R WCI -21
MARSHFIELD     CLEAR     -8 -14  74 W6        30.43R WCI -21
6HR MIN TEMP: -10; 6HR MAX TEMP:  -2;

STEVENS POINT  CLEAR    -17 -24  73 CALM      30.45R
6HR MIN TEMP: -18; 6HR MAX TEMP:  -3;

WAUPACA        CLEAR     -1 -11  63 CALM      30.48R
6HR MIN TEMP:  -2; 6HR MAX TEMP:   3;

WAUTOMA        CLEAR     -9 -16  71 CALM      30.49R
6HR MIN TEMP: -11; 6HR MAX TEMP:   0;

WISC RAPIDS    FAIR     -13 -19  75 SW3       30.48R
6HR MIN TEMP: -13; 6HR MAX TEMP:  -1;

CAMP DOUGLAS   CLEAR     -7 -12  78 W5        30.49R WCI -18
6HR MIN TEMP:  -8; 6HR MAX TEMP:  -4;

$$

WIZ011>013-019>022-031-037>040-048>050-271300-
NORTHEAST WISCONSIN

CITY           SKY/WX    TMP DP  RH WIND       PRES   REMARKS
ANTIGO         PTCLDY   -11 -16  78 CALM      30.37R
6HR MIN TEMP: -13; 6HR MAX TEMP:  -5;

SHAWANO        CLEAR     -3 -12  66 W6        30.46R WCI -15
6HR MIN TEMP:  -6; 6HR MAX TEMP:   2;

OCONTO         CLEAR    -10 -15  80 W3        30.46R
6HR MIN TEMP: -12; 6HR MAX TEMP:  -8;

STURGEON BAY   CLEAR     -2 -11  65 W5        30.45R WCI -12
6HR MIN TEMP:  -8; 6HR MAX TEMP:   0;

GREEN BAY      CLEAR     -2  -9  72 W5        30.46R WCI -12
6HR MIN TEMP:  -2; 6HR MAX TEMP:   2;

MANITOWOC      CLEAR     -2  -9  72 W5          N/A  WCI -12
6HR MIN TEMP:  -2; 6HR MAX TEMP:   3;

APPLETON       CLEAR     -6 -13  71 W10       30.45R WCI -23
CLINTONVILLE   CLEAR     -6 -13  71 W6        30.46R WCI -18
OSHKOSH        CLEAR     -3 -11  68 W8        30.47R WCI -18
6HR MIN TEMP:  -3; 6HR MAX TEMP:   2;

$$

WIZ032>034-041-042-053>061-271300-
SOUTHWEST WISCONSIN

CITY           SKY/WX    TMP DP  RH WIND       PRES   REMARKS
LA CROSSE      CLEAR     -8 -14  74 S3        30.55R
6HR MIN TEMP:  -9; 6HR MAX TEMP:  -3;

SPARTA         CLEAR    -19 -25  75 CALM      30.52R
6HR MIN TEMP: -20; 6HR MAX TEMP: -12;

VIROQUA        CLEAR     -9 -13  83 W3        30.46S
6HR MIN TEMP: -10; 6HR MAX TEMP:  -2;

BOSCOBEL       PTCLDY   -15 -20  78 SW3       30.57R
6HR MIN TEMP: -15; 6HR MAX TEMP:  -8;

PRAIRIE DU CHI PTCLDY   -15 -21  72 CALM      30.57S HAZE
6HR MIN TEMP: -15; 6HR MAX TEMP:  -3;

PLATTEVILLE    FAIR     -11 -16  80 W5        30.51R WCI -23
6HR MIN TEMP: -11; 6HR MAX TEMP:  -4;

$$

WIZ056-057-062-063-064-067-068-271300-
SOUTH CENTRAL WISCONSIN

CITY           SKY/WX    TMP DP  RH WIND       PRES   REMARKS
REEDSBURG      FAIR     -12 -16  81 CALM      30.50R
6HR MIN TEMP: -12; 6HR MAX TEMP:   0;

BARABOO/DELLS  FAIR      -8 -14  76 CALM      30.49R
6HR MIN TEMP:  -9; 6HR MAX TEMP:   0;

LONE ROCK      FAIR     -12 -17  78 W6        30.54R WCI -26
6HR MIN TEMP: -13; 6HR MAX TEMP:   1;

MINERAL POINT  PTCLDY    -8 -13  77 W5        30.48R WCI -19
MADISON        CLEAR     -3 -11  68 W3        30.50R
6HR MIN TEMP:  -4; 6HR MAX TEMP:   0;

MIDDLETON      CLEAR     -3 -10  69 CALM      30.50R
6HR MIN TEMP:  -7; 6HR MAX TEMP:   0;

WATERTOWN      CLEAR     -9 -14  78 CALM      30.49R
6HR MIN TEMP: -10; 6HR MAX TEMP:  -1;

MONROE         CLEAR     -4  -9  77 W12       30.47R WCI -22
JANESVILLE     CLEAR     -8 -15  71 CALM      30.51R
$$

WIZ051-052-058>065-066-070>072-271300-
SOUTHEAST WISCONSIN

CITY           SKY/WX    TMP DP  RH WIND       PRES   REMARKS
MILWAUKEE      CLEAR      1  -9  62 NW9       30.49R WCI -14
6HR MIN TEMP:   1; 6HR MAX TEMP:   6;

WAUKESHA       CLEAR     -4 -11  71 W7        30.49R WCI -18
MILWAUKEE/TIMM FAIR       0  -9  65 W3        30.49R
RACINE         CLEAR     -2 -11  65 W9        30.50R WCI -18
6HR MIN TEMP:  -2; 6HR MAX TEMP:   2;

BURLINGTON     NOT AVBL
KENOSHA        CLEAR     -5 -12  72 W8        30.49R WCI -20
6HR MIN TEMP: -10; 6HR MAX TEMP:  -3;

FOND DU LAC    CLEAR     -7 -13  75 S5        30.48R WCI -18
6HR MIN TEMP:  -7; 6HR MAX TEMP:   2; 6HR PCP: TRACE;

SHEBOYGAN      CLEAR     -3 -10  72 W5        30.47R WCI -13
6HR MIN TEMP:  -3; 6HR MAX TEMP:   2;

WEST BEND      CLEAR     -4  -9  77 W3        30.47R
JUNEAU         CLEAR     -6 -11  77 CALM      30.49R
6HR MIN TEMP:  -6; 6HR MAX TEMP:   2;

$$

LSZ147-162-271300-
LAKE SUPERIOR

STATION/POSITION TIME  TEMP    WIND        PRES    WAVE
                       AIR SEA DIR/SP/G            HT/PER
                 (UTC) (F)     (DEG/KT/KT) (MB)    (FT/S)
DEVILS ISLAND    1200    3     260/ 11/ 14 1032.2R
PORT WING        1100   -4     190/  7/  9 1031.2
SAXON HARBOR     1100   -4     190/  5/  8 1030.5R
$$

LMZ867-665-643>646-271300-
LAKE MICHIGAN

STATION/POSITION TIME  TEMP    WIND        PRES    WAVE
                       AIR SEA DIR/SP/G            HT/PER



USA.gov is the U.S. government's official web portal to all federal, state and local government web resources and services.